Location: Lone Pine Community Mobile Home Park
(42.7367°N, 73.8567°W)
Time: 05:06:43
(UTC+00:00)

BREEZE-M R/B - Pass Details

Date: 29 October 2020
Orbit: 309 x 4522 km, 49.7° (Epoch: 27 November)

Event Time Altitude Azimuth Distance (km) Brightness Sun altitude
Rises 22:18:08 0° 290° (WNW) 2,288 7.0 -5.6°
Reaches altitude 10° 22:19:51 10° 302° (WNW) 1,614 5.9 -5.9°
Maximum altitude 22:23:03 34° 10° (N) 1,059 4.1 -6.5°
Drops below altitude 10° 22:28:46 10° 75° (ENE) 2,940 5.8 -7.5°
Enters shadow 22:29:14 - 76° (ENE) 3,123 5.9 -7.6°
